STARLINK-2442

Last updated on Sat May 08 2021 00:02:03 GMT+0000 (Coordinated Universal Time)

1 48106U 21027Q 21127.58334491 .00056671 00000-0 40557-3 0 9990 2 48106 53.0476 191.7742 0002463 26.6216 263.1108 15.73188829 1773

Satellite not in orbit